LOGSATS-2

operational
NORAD ID: 62689 Int'l Des: 2025-009 Owner: PATIN Country: T
LEOCIRCULARRETROGRADE

Über LOGSATS-2

Beschreibung wird geladen...

Live-Position

3D-Globus wird geladen...

Nächste Überflüge

Höhenverlauf

Altitude vs Time

uPlot chart will show altitude changes over time

Zweizeiliger Elementsatz

1 62689U 25009CJ 26063.18344516 .00320310 00000-0 26632-2 0 9996
2 62689 97.3935 152.9793 0004901 268.6572 91.4128 15.69165572 63343
Epoch: 4. März 2026 • Age: 18 hours

Aktueller Status

Höhe 373.3 km
Geschwindigkeit 7.69 km/s
Subsatellitenpunkt 58.82°N, 62.33°E
Startdatum 14. Jan. 2025
Alter 1.1 years
Typ other

Technische Details

Klassifizierung Payload
Masse 5.00 kg
Trockenmasse 5.00 kg
Gesamtmasse 5.00 kg
Länge 0.30 m
Durchmesser 0.10 m
Spannweite 0.30 m
Form Box+ 2 pan
Hersteller PATIN
Bus-Typ Cubesat 3U
Phasenstatus In Orbit
Besitzer/Staat PATIN/T

Große Konstellationen

Loading constellations...